Location: Altenst�hlen
(53.5567°N, 8.9425°E)
Time: 17:28:13
(UTC+00:00)

Cosmos 2227 Rocket - Pass Details

Date: 23 October 2019
Orbit: 838 x 846 km, 71.0° (Epoch: 16 November)

Event Time Altitude Azimuth Distance (km) Brightness Sun altitude
Rises 17:21:17 0° 306° (NW) 3,417 6.2 -11.1°
Reaches altitude 10° 17:25:13 10° 333° (NNW) 2,482 5.0 -11.7°
Maximum altitude 17:27:56 13° 2° (N) 2,245 4.4 -12.1°
Drops below altitude 10° 17:30:39 10° 30° (NNE) 2,482 4.3 -12.5°
Enters shadow 17:32:10 - 43° (NE) 2,786 4.5 -12.7°
